FW2316 Weather Reports


time (UTC)temp
F
wind
direction
speed
knots
gust
knots
rain 1hr
in
rain 24hr
in
rain mn
in
humidity
%
barometer
mb
20260507142523 49 190 1.7 4.3 0.00 0.00 0.00 85 1022.2
20260507142020 49 190 0.9 5.2 0.00 0.00 0.00 86 1022.2
20260507141520 49 190 1.7 4.3 0.00 0.00 0.00 86 1022.2
20260507141020 49 190 0.0 3.5 0.00 0.00 0.00 86 1022.2
20260507140520 49 188 0.0 3.5 0.00 0.00 0.00 86 1022.1
20260507140019 49 188 0.9 3.5 0.00 0.00 0.00 86 1022.0
20260507135518 49 188 0.0 3.5 0.00 0.00 0.00 87 1021.8
20260507135017 49 188 0.0 3.5 0.00 0.00 0.00 87 1021.8
20260507134517 49 186 0.9 2.6 0.00 0.00 0.00 87 1021.8
20260507134015 49 186 0.9 2.6 0.00 0.00 0.00 87 1021.8
20260507133514 49 186 0.0 1.7 0.00 0.00 0.00 88 1021.8
20260507132513 49 186 0.0 2.6 0.00 0.00 0.00 89 1021.7
20260507132013 48 186 0.0 2.6 0.00 0.00 0.00 89 1021.7
20260507131512 48 186 0.0 0.9 0.00 0.00 0.00 89 1021.8
20260507131011 48 186 0.0 1.7 0.00 0.00 0.00 89 1021.7
20260507130512 48 186 0.0 0.9 0.00 0.00 0.00 89 1021.7
20260507130010 48 186 0.0 0.9 0.00 0.00 0.00 89 1021.8
20260507125511 48 186 0.0 1.7 0.00 0.00 0.00 89 1021.8
20260507125011 48 186 0.0 1.7 0.00 0.00 0.00 89 1021.8
20260507124509 48 186 0.0 2.6 0.00 0.00 0.00 89 1021.8
20260507124008 48 186 0.0 2.6 0.00 0.00 0.00 89 1021.9
20260507123508 48 186 0.0 0.9 0.00 0.00 0.00 89 1021.9
20260507122506 48 186 0.0 1.7 0.00 0.00 0.00 89 1022.0
20260507122006 48 186 0.0 1.7 0.00 0.00 0.00 89 1022.0
20260507121506 49 186 0.0 0.9 0.00 0.00 0.00 89 1022.1
20260507121006 49 186 0.0 0.9 0.00 0.00 0.00 89 1022.1
20260507120504 49 186 0.0 0.9 0.00 0.00 0.00 89 1022.2
20260507120005 49 186 0.0 0.9 0.00 0.00 0.00 88 1022.2
20260507115504 49 186 0.0 0.9 0.00 0.00 0.00 88 1022.3
20260507115002 49 186 0.0 1.7 0.00 0.00 0.00 88 1022.3
20260507114502 49 186 0.0 1.7 0.00 0.00 0.00 88 1022.4
20260507114004 49 186 0.0 0.0 0.00 0.00 0.00 88 1022.4
20260507113503 49 186 0.0 0.9 0.00 0.00 0.00 88 1022.4
20260507112502 49 186 0.0 0.9 0.00 0.00 0.00 88 1022.4
20260507112101 49 186 0.0 0.9 0.00 0.00 0.00 87 1022.3
20260507112001 49 186 0.0 1.7 0.00 0.00 0.00 87 1022.4
20260507111601 49 186 0.0 1.7 0.00 0.00 0.00 87 1022.4
20260507111059 49 186 0.0 0.9 0.00 0.00 0.00 86 1022.4
20260507110559 49 186 0.0 0.9 0.00 0.00 0.00 86 1022.5
20260507110103 49 186 0.0 1.7 0.00 0.00 0.00 85 1022.4
20260507105558 49 186 0.0 1.7 0.00 0.00 0.00 84 1022.6
20260507105058 49 186 0.0 1.7 0.00 0.00 0.00 84 1022.6
20260507104603 49 186 0.0 1.7 0.00 0.00 0.00 85 1022.5
20260507104057 50 186 0.0 2.6 0.00 0.00 0.00 85 1022.5
20260507103557 50 186 0.0 2.6 0.00 0.00 0.00 85 1022.5
20260507102557 50 186 0.0 2.6 0.00 0.00 0.00 85 1022.6
20260507102056 50 186 0.0 2.6 0.00 0.00 0.00 85 1022.6
20260507101556 50 186 0.0 1.7 0.00 0.00 0.00 84 1022.6
20260507101057 50 186 0.0 3.5 0.00 0.00 0.00 84 1022.6
20260507100554 50 186 0.0 3.5 0.00 0.00 0.00 84 1022.6
20260507100107 50 186 0.0 2.6 0.00 0.00 0.00 84 1022.5
20260507095555 50 186 0.0 2.6 0.00 0.00 0.00 85 1022.5
20260507095056 50 186 0.9 2.6 0.00 0.00 0.00 85 1022.5
20260507094553 50 186 0.9 2.6 0.00 0.00 0.00 85 1022.5
20260507094053 50 186 0.9 3.5 0.00 0.00 0.00 85 1022.5
20260507093552 50 186 0.0 3.5 0.00 0.00 0.00 85 1022.5
20260507092552 50 187 0.9 3.5 0.00 0.00 0.00 85 1022.5
20260507092051 50 188 0.9 3.5 0.00 0.00 0.00 85 1022.5
20260507091551 50 188 0.0 4.3 0.00 0.00 0.00 85 1022.6
20260507091050 50 188 0.9 4.3 0.00 0.00 0.00 85 1022.4
20260507090550 50 185 2.6 4.3 0.00 0.00 0.00 86 1022.4
20260507090056 50 187 0.9 4.3 0.00 0.00 0.00 87 1022.5
20260507085549 50 186 1.7 4.3 0.00 0.00 0.00 87 1022.5
20260507085051 50 186 1.7 4.3 0.00 0.00 0.00 87 1022.5
20260507084558 50 186 0.9 4.3 0.00 0.00 0.00 87 1022.5
20260507084049 50 185 0.9 4.3 0.00 0.00 0.00 88 1022.5
20260507083549 51 185 0.9 3.5 0.00 0.00 0.00 88 1022.5
20260507082547 51 184 0.9 5.2 0.00 0.00 0.00 88 1022.6
20260507082047 51 182 1.7 4.3 0.00 0.00 0.00 89 1022.6
20260507081548 51 180 0.9 4.3 0.00 0.00 0.00 90 1022.5
20260507081047 51 174 0.9 4.3 0.00 0.00 0.00 90 1022.6
20260507080549 51 170 2.6 4.3 0.00 0.00 0.00 90 1022.6
20260507080053 50 170 0.0 3.5 0.00 0.00 0.00 90 1022.6
20260507075547 51 170 0.9 4.3 0.00 0.00 0.00 90 1022.6
20260507075045 51 168 0.0 3.5 0.00 0.00 0.00 91 1022.7
20260507074546 51 169 0.9 4.3 0.00 0.00 0.00 90 1022.6
20260507074045 51 170 0.9 4.3 0.00 0.00 0.00 89 1022.6
20260507073544 51 174 0.9 3.5 0.00 0.00 0.00 89 1022.5
20260507072544 51 175 2.6 7.0 0.00 0.00 0.00 88 1022.5
20260507072043 52 175 2.6 7.8 0.00 0.00 0.00 87 1022.5
20260507071545 52 188 1.7 6.1 0.00 0.00 0.00 87 1022.5
20260507071042 52 173 3.5 6.1 0.00 0.00 0.00 86 1022.5
20260507070542 52 189 1.7 5.2 0.00 0.00 0.00 86 1022.5
20260507070059 52 189 1.7 5.2 0.00 0.00 0.00 86 1022.5
20260507065540 52 183 1.7 4.3 0.00 0.00 0.00 86 1022.4
20260507065041 52 187 0.9 5.2 0.00 0.00 0.00 86 1022.5
20260507064549 52 187 2.6 5.2 0.00 0.00 0.00 86 1022.4
20260507064041 52 200 1.7 4.3 0.00 0.00 0.00 86 1022.4
20260507063539 52 221 0.9 4.3 0.00 0.00 0.00 87 1022.5
20260507062541 52 227 0.0 6.1 0.00 0.00 0.00 87 1022.4
20260507062039 52 229 1.7 6.1 0.00 0.00 0.00 87 1022.5
20260507061539 52 270 0.9 4.3 0.00 0.00 0.00 87 1022.4
20260507061139 52 291 0.0 2.6 0.00 0.00 0.00 87 1022.4
20260507060541 52 295 0.9 2.6 0.00 0.00 0.00 87 1022.6
20260507060038 52 296 0.9 2.6 0.00 0.00 0.00 87 1022.5
20260507055538 53 299 0.0 3.5 0.00 0.00 0.00 88 1022.5
20260507055037 53 299 0.9 3.5 0.00 0.00 0.00 87 1022.6
20260507054556 53 302 0.9 3.5 0.00 0.00 0.00 88 1022.6
20260507054039 53 331 1.7 3.5 0.00 0.00 0.00 89 1022.5
20260507053541 53 348 0.9 2.6 0.00 0.00 0.00 90 1022.6
20260507052537 53 351 0.0 3.5 0.00 0.00 0.00 90 1022.5
20260507052037 53 351 0.0 3.5 0.00 0.00 0.00 89 1022.5
20260507051543 53 360 0.0 3.5 0.00 0.00 0.00 88 1022.4
20260507051036 53 360 0.9 3.5 0.00 0.00 0.00 88 1022.5
20260507050539 53 360 0.0 2.6 0.00 0.00 0.00 88 1022.5
20260507050046 54 360 0.9 2.6 0.00 0.00 0.00 88 1022.5
20260507045536 54 360 0.0 0.0 0.00 0.00 0.00 88 1022.4
20260507045036 54 360 0.0 0.0 0.00 0.00 0.00 88 1022.4
20260507044539 54 360 0.0 0.0 0.00 0.00 0.00 88 1022.5
20260507044036 54 360 0.0 0.0 0.00 0.00 0.00 87 1022.5
20260507043535 54 360 0.0 0.0 0.00 0.00 0.00 87 1022.5
20260507042535 54 360 0.0 0.0 0.00 0.00 0.00 87 1022.4
20260507042034 54 360 0.0 0.0 0.00 0.00 0.00 87 1022.4
20260507041534 54 360 0.0 0.0 0.00 0.00 0.00 87 1022.5
20260507041036 54 360 0.0 0.0 0.00 0.00 0.00 87 1022.5
20260507040534 54 360 0.0 0.0 0.00 0.00 0.00 86 1022.3
20260507040039 54 360 0.0 0.0 0.00 0.00 0.00 87 1022.4
20260507035533 54 360 0.0 0.0 0.00 0.00 0.00 87 1022.2
20260507035033 54 360 0.0 0.0 0.00 0.00 0.00 87 1022.1
20260507034533 54 360 0.0 0.0 0.00 0.00 0.00 87 1022.3
20260507034033 54 360 0.0 0.0 0.00 0.00 0.00 88 1022.1
20260507033532 54 360 0.0 0.0 0.00 0.00 0.00 88 1022.1
20260507032530 54 360 0.0 0.9 0.00 0.00 0.00 88 1022.1
20260507032031 54 360 0.0 0.9 0.00 0.00 0.00 87 1021.9
20260507031532 54 360 0.0 0.9 0.00 0.00 0.00 87 1021.9
20260507031031 54 360 0.0 0.9 0.00 0.00 0.00 87 1021.8
20260507030531 54 360 0.0 1.7 0.00 0.00 0.00 87 1021.8
20260507030032 54 360 0.0 1.7 0.00 0.00 0.00 86 1021.8
20260507025530 54 360 0.0 0.9 0.00 0.00 0.00 87 1021.8
20260507025032 54 360 0.0 1.7 0.00 0.00 0.00 86 1021.8
20260507024535 54 360 0.0 1.7 0.00 0.00 0.00 86 1021.7
20260507024030 54 360 0.0 1.7 0.00 0.00 0.00 87 1021.7
20260507023531 54 360 0.0 2.6 0.00 0.00 0.00 86 1021.7
20260507022532 54 360 0.0 2.6 0.00 0.00 0.00 87 1021.7
20260507022033 55 360 0.9 2.6 0.00 0.00 0.00 86 1021.7
20260507021536 55 360 0.0 1.7 0.00 0.00 0.00 86 1021.8
20260507021031 54 360 0.0 2.6 0.00 0.00 0.00 86 1021.7
20260507020532 55 360 0.9 2.6 0.00 0.00 0.00 86 1021.7
20260507020032 55 360 0.0 2.6 0.00 0.00 0.00 86 1021.7
20260507015531 55 360 0.9 3.5 0.00 0.00 0.00 86 1021.7
20260507015031 55 360 0.9 2.6 0.00 0.00 0.00 86 1021.6
20260507014536 55 360 0.0 2.6 0.00 0.00 0.00 85 1021.6
20260507014032 55 360 0.9 2.6 0.00 0.00 0.00 85 1021.7
20260507013531 55 360 0.0 1.7 0.00 0.00 0.00 86 1021.5
20260507012528 55 360 0.9 3.5 0.00 0.00 0.00 85 1021.6
20260507012032 55 360 0.9 3.5 0.00 0.00 0.00 85 1021.5
20260507011531 55 360 0.9 5.2 0.00 0.00 0.00 85 1021.5
20260507011028 55 360 1.7 5.2 0.00 0.00 0.00 85 1021.5
20260507010528 55 360 0.9 3.5 0.00 0.00 0.00 85 1021.5
20260507010037 55 360 1.7 3.5 0.00 0.00 0.00 84 1021.6
20260507005531 55 360 1.7 3.5 0.00 0.00 0.00 83 1021.5
20260507005027 55 355 0.9 3.5 0.00 0.00 0.00 83 1021.5
20260507004528 56 355 1.7 4.3 0.00 0.00 0.00 83 1021.5
20260507004028 56 355 1.7 4.3 0.00 0.00 0.00 83 1021.6
20260507003528 55 355 0.9 4.3 0.00 0.00 0.00 83 1021.6
20260507002527 55 348 1.7 4.3 0.00 0.00 0.00 83 1021.7
20260507002027 56 350 0.9 3.5 0.00 0.00 0.00 82 1021.6
20260507001542 56 355 0.9 5.2 0.00 0.00 0.00 83 1021.7
20260507001027 56 355 2.6 5.2 0.00 0.00 0.00 83 1021.7
20260507000527 56 334 0.0 5.2 0.00 0.00 0.00 82 1021.7
20260507000032 56 329 2.6 5.2 0.00 0.00 0.00 83 1021.7
20260506235526 56 334 1.7 4.3 0.00 0.00 0.00 84 1021.7
20260506235028 55 338 0.9 4.3 0.00 0.00 0.00 83 1021.6
20260506234527 56 331 1.7 5.2 0.00 0.00 0.00 83 1021.7
20260506234027 56 324 1.7 5.2 0.00 0.00 0.00 83 1021.7
20260506233526 56 320 3.5 7.8 0.00 0.00 0.00 83 1021.6
20260506232526 56 323 3.5 7.8 0.00 0.00 0.00 82 1021.7
20260506232026 56 294 4.3 7.0 0.00 0.00 0.00 82 1021.7
20260506231525 56 263 0.9 6.1 0.00 0.00 0.00 82 1021.7
20260506231024 56 229 3.5 5.2 0.00 0.00 0.00 82 1021.7
20260506230524 56 215 0.9 5.2 0.00 0.00 0.00 84 1021.7
20260506230028 56 217 1.7 4.3 0.00 0.00 0.00 83 1021.7
20260506225523 56 221 0.0 2.6 0.00 0.00 0.00 84 1021.6
20260506225023 56 222 0.9 4.3 0.00 0.00 0.00 83 1021.6
20260506224523 56 223 0.0 2.6 0.00 0.00 0.00 84 1021.7
20260506224023 56 223 0.0 3.5 0.00 0.00 0.00 85 1021.8
20260506223622 56 225 0.9 3.5 0.00 0.00 0.00 84 1021.8
20260506222520 55 224 1.7 4.3 0.00 0.00 0.00 87 1021.9
20260506222020 55 212 0.0 3.5 0.00 0.00 0.00 88 1022.0
20260506221519 55 212 0.0 3.5 0.00 0.00 0.00 87 1022.0
20260506221019 55 212 0.0 2.6 0.00 0.00 0.00 88 1022.0
20260506220518 55 212 0.9 4.3 0.00 0.00 0.00 87 1022.0
20260506220018 55 212 0.9 5.2 0.00 0.00 0.00 87 1022.0
20260506215519 55 212 1.7 5.2 0.00 0.00 0.00 88 1022.0
20260506215047 55 211 1.7 3.5 0.00 0.00 0.00 88 1022.0
20260506214517 55 210 0.9 3.5 0.00 0.00 0.00 88 1022.0
20260506214017 55 207 0.9 2.6 0.00 0.00 0.00 89 1022.0
20260506213516 55 207 0.0 2.6 0.00 0.00 0.00 89 1022.0
20260506212516 54 206 0.9 4.3 0.00 0.00 0.00 90 1022.0
20260506212016 54 238 0.9 3.5 0.00 0.00 0.00 90 1022.0
20260506211526 54 244 0.9 3.5 0.00 0.00 0.00 90 1022.1
20260506211015 54 245 0.0 4.3 0.00 0.00 0.00 91 1022.1
20260506210515 54 246 0.9 4.3 0.00 0.00 0.00 91 1022.1
20260506210029 54 253 0.0 3.5 0.00 0.00 0.00 91 1022.1
20260506205515 54 253 0.9 3.5 0.00 0.00 0.00 92 1022.0
20260506205015 53 261 0.0 3.5 0.00 0.00 0.00 92 1022.1
20260506204521 54 262 0.9 3.5 0.00 0.00 0.00 92 1022.0
20260506204013 54 262 1.7 5.2 0.00 0.00 0.00 91 1021.9
20260506203513 54 261 2.6 5.2 0.00 0.00 0.00 92 1022.0
20260506202513 53 198 1.7 5.2 0.00 0.00 0.00 92 1021.9
20260506202012 53 180 0.9 5.2 0.00 0.00 0.00 92 1022.0
20260506201513 53 192 2.6 5.2 0.00 0.00 0.00 92 1021.9
20260506201012 53 187 0.9 5.2 0.00 0.00 0.00 92 1021.9
20260506200511 53 214 1.7 4.3 0.00 0.00 0.00 92 1021.9
20260506200012 53 186 1.7 4.3 0.00 0.00 0.00 92 1021.8
20260506195511 53 221 0.9 3.5 0.00 0.00 0.00 92 1021.8
20260506195016 53 235 1.7 6.1 0.00 0.00 0.00 92 1021.8
20260506194511 53 242 1.7 6.1 0.00 0.00 0.00 92 1021.8
20260506194015 53 242 0.9 3.5 0.00 0.00 0.00 92 1021.8
20260506193511 53 242 0.9 4.3 0.00 0.00 0.00 92 1021.8
20260506192612 53 251 2.6 4.3 0.00 0.00 0.00 93 1021.8
20260506192009 53 251 0.9 5.2 0.00 0.00 0.00 93 1021.8
20260506191509 53 270 2.6 5.2 0.00 0.00 0.00 93 1021.9
20260506191010 53 296 1.7 4.3 0.00 0.00 0.00 93 1021.7
20260506190508 53 305 1.7 4.3 0.00 0.00 0.00 93 1021.8
20260506190009 53 286 1.7 6.1 0.00 0.00 0.00 93 1021.8
20260506185508 53 280 3.5 6.1 0.00 0.00 0.00 94 1021.8
20260506185007 53 286 2.6 5.2 0.00 0.00 0.00 94 1021.5
20260506184507 52 260 2.6 3.5 0.00 0.00 0.00 94 1021.4
20260506184008 52 247 0.9 3.5 0.00 0.00 0.00 93 1021.4
20260506183507 52 246 0.0 4.3 0.00 0.00 0.00 94 1021.4
20260506182510 53 252 0.9 3.5 0.00 0.00 0.00 94 1021.5
20260506182014 52 252 1.7 3.5 0.00 0.00 0.00 94 1021.5
20260506181526 52 251 1.7 3.5 0.00 0.00 0.00 94 1021.6
20260506181010 52 254 0.9 6.1 0.00 0.00 0.00 94 1021.6
20260506180511 52 252 2.6 6.1 0.00 0.00 0.00 94 1021.6
20260506180009 52 269 1.7 6.1 0.00 0.00 0.00 95 1021.5
20260506175511 52 258 1.7 6.1 0.00 0.00 0.00 95 1021.6
20260506175007 52 260 0.9 7.0 0.00 0.00 0.00 95 1021.6
20260506174508 52 338 1.7 7.0 0.00 0.00 0.00 95 1021.6
20260506174009 52 280 1.7 6.1 0.00 0.00 0.00 95 1021.5
20260506173512 52 275 2.6 6.1 0.00 0.00 0.00 95 1021.5
20260506172503 52 257 1.7 6.1 0.00 0.00 0.00 96 1021.4
20260506172005 52 247 2.6 6.1 0.00 0.00 0.00 96 1021.4
20260506171506 52 236 1.7 6.1 0.00 0.00 0.00 95 1021.4
20260506171003 52 234 2.6 5.2 0.00 0.00 0.00 96 1021.4
20260506170603 52 228 2.6 4.3 0.00 0.00 0.00 95 1021.3
20260506170001 52 227 0.0 2.6 0.00 0.00 0.00 96 1021.1
20260506165504 52 227 1.7 2.6 0.00 0.00 0.00 96 1021.1
20260506165002 52 227 0.0 2.6 0.00 0.00 0.00 96 1021.0
20260506164502 52 227 0.0 2.6 0.00 0.00 0.00 96 1021.1
20260506164001 52 227 0.9 1.7 0.00 0.00 0.00 96 1021.1
20260506163600 52 227 0.0 2.6 0.00 0.00 0.00 96 1021.0
20260506162557 51 227 1.7 4.3 0.00 0.00 0.00 96 1021.2
20260506162057 52 227 1.7 4.3 0.00 0.00 0.00 96 1021.3
20260506161557 51 226 1.7 4.3 0.00 0.00 0.00 96 1021.2
20260506161056 51 226 1.7 4.3 0.00 0.00 0.00 96 1021.3
20260506160556 52 225 2.6 4.3 0.00 0.00 0.00 96 1021.2
20260506160057 52 222 1.7 3.5 0.00 0.00 0.00 97 1021.3
20260506155558 51 221 0.9 3.5 0.00 0.00 0.00 96 1021.1
20260506155059 51 221 1.7 3.5 0.00 0.00 0.00 96 1021.0
20260506154611 51 221 0.9 3.5 0.00 0.00 0.00 96 1020.8
20260506154054 51 221 0.9 2.6 0.00 0.00 0.00 97 1021.0
20260506153554 51 221 0.0 4.3 0.00 0.00 0.00 96 1021.2
20260506152555 51 219 0.9 4.3 0.00 0.00 0.00 97 1021.3
20260506152057 51 219 0.9 4.3 0.00 0.00 0.00 96 1021.1
20260506151555 52 218 1.7 4.3 0.00 0.00 0.00 96 1021.0
20260506151053 52 217 2.6 4.3 0.00 0.00 0.00 97 1021.1
20260506150552 51 210 0.9 3.5 0.00 0.00 0.00 97 1020.7
20260506150054 51 210 1.7 3.5 0.00 0.00 0.00 97 1020.7
20260506145552 51 210 1.7 3.5 0.00 0.00 0.00 96 1020.5
20260506145052 51 210 0.9 2.6 0.00 0.00 0.00 97 1020.5
20260506144556 51 210 0.9 2.6 0.00 0.00 0.00 97 1020.1
20260506144052 51 210 0.9 3.5 0.00 0.00 0.00 96 1020.5
20260506143549 51 210 0.9 3.5 0.00 0.00 0.00 96 1020.7